Theta_e
335 335 334 334 334 333 333 328 322 319 318 319 319 317 317 321 323 323 324 331 335 334 335 334 333 334 333 333 334 333 333 332 333 332 330 330 327 324 323 323 322 320 320 320 320 318 316 316 314 311 309 307 306 306 306 305 306 307 308 310 313 316 318 319 320 320 320 321 321 321 320 320 319 319 318 317 317 317 318 316 312 308 306 306 306
335 334 334 334 333 333 333 332 329 323 318 320 323 323 323 324 324 323 322 328 335 335 334 334 332 333 333 333 333 333 333 332 332 331 330 330 330 328 325 324 323 322 322 321 321 319 318 317 314 311 308 306 305 305 306 305 306 308 310 313 315 318 319 320 320 321 321 321 321 321 321 320 319 319 319 318 318 318 319 320 319 315 311 308 307
333 333 333 334 333 333 333 332 332 329 322 322 328 330 331 331 331 328 324 326 333 335 334 333 333 333 332 332 333 332 333 332 331 331 331 331 330 329 326 324 324 323 323 322 321 320 320 316 310 308 307 305 305 305 305 306 308 310 313 316 318 319 320 321 321 321 321 321 322 322 321 321 319 319 319 319 319 319 320 321 322 321 318 313 310
332 332 333 333 333 332 332 332 333 333 328 326 329 330 330 332 333 332 329 326 331 335 334 333 333 333 332 332 333 333 332 331 331 331 331 331 330 329 326 326 325 323 323 322 320 319 319 314 307 306 305 305 305 305 306 308 311 314 316 319 320 321 321 321 321 321 321 321 322 322 322 321 319 319 319 320 320 320 320 321 322 322 320 317 315
332 332 332 332 332 332 332 332 333 333 333 330 329 329 328 330 332 333 332 330 331 334 334 333 333 332 332 332 333 333 331 330 331 332 331 331 330 328 327 327 327 327 326 324 320 318 317 312 307 306 305 305 305 305 308 311 314 317 319 320 321 322 322 320 320 320 321 321 321 321 322 322 320 319 319 320 320 320 320 320 321 322 321 319 319
331 331 331 330 331 332 331 331 332 333 333 331 330 330 329 330 332 332 332 332 332 334 334 334 333 332 332 332 332 331 331 331 331 332 331 331 330 328 327 328 329 329 329 325 319 316 315 311 308 306 305 304 305 308 311 314 318 320 321 321 322 323 322 319 319 320 321 320 320 320 321 321 321 319 319 320 320 320 320 320 320 321 322 321 320
329 329 329 330 331 331 331 331 331 333 332 331 330 330 330 330 331 332 331 332 333 334 335 334 333 332 331 331 331 329 330 332 332 332 331 331 329 328 328 329 329 329 328 326 321 314 312 310 308 305 304 305 308 312 315 318 320 321 322 323 324 324 322 320 320 320 320 320 319 319 319 320 321 319 319 320 320 320 320 321 321 321 322 322 321
327 328 330 332 332 331 331 332 332 332 332 331 330 330 330 329 330 330 330 331 333 334 334 334 333 332 331 331 331 329 331 333 332 332 332 331 330 329 329 330 330 329 329 328 324 316 310 308 307 304 305 308 312 315 318 321 322 322 323 324 325 323 322 321 321 320 320 320 319 318 317 318 321 320 319 320 320 320 321 320 321 321 322 322 322
328 329 330 331 331 330 331 331 332 333 332 331 331 330 330 330 329 329 330 330 332 333 334 334 333 331 331 330 331 331 332 332 332 333 332 331 331 331 330 330 330 330 330 328 326 322 313 307 306 306 308 312 315 318 320 322 322 323 325 325 326 324 322 323 323 322 321 321 321 319 317 317 319 320 319 319 320 320 320 321 321 321 323 323 323
329 329 329 330 330 331 330 331 332 333 332 331 330 330 329 330 330 329 330 330 331 332 333 334 333 331 330 329 330 331 331 332 332 332 331 331 332 331 331 330 329 329 330 329 327 326 317 308 309 310 312 316 319 320 322 322 323 325 326 326 326 325 325 325 324 323 322 322 322 320 318 316 318 320 318 319 320 320 321 321 321 322 323 323 323
331 330 330 330 331 331 331 331 331 332 332 332 331 330 329 329 330 330 330 330 329 330 333 334 333 331 331 330 330 329 330 332 332 331 330 332 332 332 331 330 330 329 330 329 327 327 321 312 312 315 317 319 321 321 322 323 324 326 326 327 327 326 327 327 324 322 322 321 321 321 320 316 316 319 319 319 321 321 322 322 322 322 323 323 323
332 332 332 332 331 331 332 332 332 332 332 332 332 331 330 329 330 330 330 330 329 329 330 333 333 332 331 331 331 330 331 332 331 330 330 332 332 332 332 331 331 330 329 329 327 327 326 319 315 318 320 321 322 323 323 323 325 326 327 327 327 327 327 326 325 322 320 320 321 322 321 317 315 318 320 321 322 322 322 322 322 322 323 323 323
332 333 333 332 331 330 331 333 333 333 333 332 332 332 331 329 330 330 331 331 331 329 329 331 332 331 331 330 330 331 332 332 330 329 330 331 332 332 332 331 331 330 329 329 327 327 329 325 319 318 320 320 321 323 323 324 325 326 327 327 327 328 327 326 325 322 320 320 320 322 322 318 315 317 320 321 322 322 321 321 322 322 323 323 322
333 333 332 332 331 330 330 331 333 333 333 332 332 332 332 331 331 331 331 331 331 331 330 331 332 331 331 330 331 331 332 331 328 327 330 331 332 331 331 331 331 331 329 329 328 328 329 329 325 321 321 322 323 323 323 324 325 326 327 327 327 327 326 325 324 321 319 319 320 321 322 318 314 316 320 321 322 321 320 320 322 323 323 322 320
334 334 334 333 332 332 332 333 333 333 333 333 332 332 332 331 332 332 331 331 331 331 331 332 331 330 331 331 331 331 331 330 327 327 329 331 331 332 331 332 331 331 330 330 329 329 329 329 328 325 324 326 326 325 324 324 325 326 326 327 327 327 327 325 323 320 317 318 319 319 321 319 314 311 315 319 320 318 317 318 321 323 322 321 320
334 334 334 334 334 334 333 333 334 334 333 334 333 332 332 331 332 332 332 331 330 330 330 331 331 331 331 331 331 331 331 330 328 329 330 330 331 332 332 331 331 331 331 330 329 328 328 329 328 328 327 328 328 327 325 325 325 325 326 327 327 326 327 326 322 318 316 317 319 318 319 320 315 308 308 311 311 311 314 316 318 321 321 320 319
333 333 334 334 334 334 334 333 333 334 334 333 333 333 332 332 332 331 331 331 330 330 331 331 331 331 331 331 331 330 331 331 330 330 330 330 331 331 331 331 331 331 331 330 330 329 328 329 329 328 328 328 328 327 325 325 325 324 325 326 327 326 326 327 323 317 314 316 318 317 316 318 315 308 305 305 305 306 310 315 318 319 320 319 316
334 334 334 334 334 333 334 334 333 334 334 333 333 333 333 332 332 331 331 331 331 331 331 331 331 331 330 331 331 330 330 330 331 331 330 330 330 331 331 331 331 331 330 330 330 329 329 329 329 328 328 328 327 327 326 326 325 324 324 325 326 326 326 327 322 316 313 315 318 317 314 315 312 307 305 304 304 304 305 310 315 316 315 313 309
334 334 334 333 333 333 333 334 334 334 334 333 333 333 333 333 332 332 331 331 331 332 332 331 331 331 330 330 331 330 330 330 330 331 331 331 330 331 331 331 331 331 331 330 329 329 329 329 329 328 329 328 327 327 326 327 327 325 324 325 326 325 326 325 320 315 311 310 316 317 314 314 311 305 304 304 303 303 302 303 306 307 306 305 303
334 333 334 333 333 333 333 333 334 333 333 333 333 333 333 333 332 332 332 331 331 332 332 331 330 330 328 329 330 330 330 329 330 330 331 331 330 330 331 330 330 330 331 330 330 329 328 329 329 329 329 328 327 327 326 327 327 326 325 325 325 325 325 323 316 314 310 306 314 319 315 313 310 305 303 303 302 302 302 301 302 302 302 302 301
333 333 333 333 333 333 333 333 332 332 331 331 332 332 333 332 332 331 332 332 331 331 331 330 329 328 326 327 330 331 330 330 330 331 330 330 330 330 330 330 330 330 331 331 330 329 329 329 329 329 329 329 327 327 326 326 327 327 325 324 325 325 325 321 314 312 309 304 311 319 318 313 309 305 302 303 302 301 302 301 302 302 301 301 301
333 332 332 332 333 333 332 332 331 330 330 331 331 331 331 331 331 331 331 333 332 331 331 330 329 328 327 327 329 331 331 331 331 330 330 331 330 330 330 330 330 330 330 330 330 329 329 330 330 329 329 329 328 327 326 326 326 327 325 325 325 325 325 320 313 311 309 305 307 314 319 314 308 306 303 302 303 301 302 302 301 301 301 301 301
332 332 331 331 331 332 332 331 329 329 329 330 330 330 330 330 331 331 331 332 332 332 331 330 329 328 327 327 329 330 330 330 329 328 329 331 331 330 330 330 330 329 329 330 330 329 330 330 330 330 329 329 329 328 327 326 326 327 326 326 325 325 325 319 312 311 308 306 305 308 316 314 307 306 303 302 303 301 302 301 301 301 301 301 301
332 331 331 330 330 331 331 330 329 328 328 328 328 328 329 330 330 330 330 331 332 332 332 331 330 329 328 328 329 330 330 329 327 327 328 330 330 329 330 330 330 330 330 330 330 330 330 330 329 329 329 329 329 328 328 326 326 327 326 326 325 324 323 316 311 311 308 307 305 306 314 313 305 304 303 302 302 301 301 301 301 301 301 301 301
331 331 331 331 330 330 329 329 329 328 328 328 327 327 328 329 329 330 330 330 331 332 332 331 330 329 329 328 328 329 329 327 327 328 330 330 330 330 330 330 330 330 330 330 330 330 330 329 328 329 329 328 329 328 328 327 327 327 325 326 325 322 319 313 310 311 309 307 306 305 311 310 304 303 303 302 302 302 301 301 301 301 301 301 301
330 330 330 330 330 330 329 329 329 329 328 328 328 328 328 329 329 330 330 330 331 332 332 331 330 330 330 329 328 329 328 327 327 329 330 330 330 330 330 331 330 330 330 330 331 330 330 329 329 329 329 328 328 329 328 328 327 326 326 325 325 322 317 312 309 310 309 307 306 305 306 306 304 303 303 302 302 302 301 302 301 301 301 302 302
328 329 329 330 330 330 329 329 329 329 328 328 328 328 329 329 329 329 329 329 330 331 332 331 329 330 330 329 329 329 329 328 328 328 329 330 329 329 330 331 330 330 330 331 331 331 329 329 328 329 329 328 328 329 329 328 327 327 326 326 325 322 317 311 307 309 310 307 306 304 303 304 304 303 302 302 302 302 302 302 301 302 302 302 302
326 327 328 329 329 329 329 329 329 329 329 328 328 328 328 328 328 328 329 329 329 330 331 330 329 329 329 329 329 329 329 329 329 328 328 329 329 329 330 331 331 329 329 330 330 331 330 329 328 328 329 328 328 329 329 328 328 327 326 326 325 320 315 309 306 308 309 307 306 305 303 303 303 303 303 302 302 302 302 302 302 302 302 302 302
323 324 326 327 328 329 328 328 328 329 329 329 329 328 328 328 327 327 328 329 329 329 330 329 329 328 329 329 329 329 329 330 330 329 327 327 329 329 330 331 331 330 330 329 329 330 330 329 329 328 329 329 328 329 329 328 328 327 327 327 325 320 315 308 305 307 309 307 306 305 304 303 303 303 302 302 302 302 302 302 302 302 302 302 302
320 321 322 324 326 327 328 327 328 329 329 329 329 328 328 328 328 328 328 328 328 329 330 329 329 329 329 329 329 329 329 330 330 329 326 326 328 329 330 330 330 330 330 329 329 329 330 330 329 328 329 329 329 329 328 328 328 328 327 327 326 324 319 310 305 306 308 306 306 305 304 303 303 303 303 303 302 302 302 302 302 302 302 302 303
318 319 320 321 323 325 326 326 327 328 329 328 328 328 328 327 327 328 329 328 327 327 329 329 330 330 330 330 330 329 329 329 329 329 327 327 328 329 330 330 330 330 329 329 330 330 330 330 328 328 329 329 329 329 329 328 328 328 327 327 326 324 321 313 305 305 307 306 306 306 304 303 303 303 302 303 303 303 302 302 302 302 302 303 303
315 317 318 319 320 321 323 325 326 328 328 328 328 328 328 327 326 327 328 329 328 328 328 328 329 329 330 330 330 330 330 329 329 328 328 328 329 328 329 329 330 330 329 329 330 330 330 330 329 329 329 329 329 329 329 328 328 328 327 327 326 324 322 317 308 304 306 306 306 306 304 303 303 303 303 303 303 303 303 303 303 303 303 303 303
313 314 315 316 317 318 320 322 324 326 326 327 327 327 328 327 327 327 327 328 329 328 329 328 328 329 330 331 331 330 330 330 329 328 328 328 328 328 328 329 330 330 329 329 329 329 329 329 329 329 329 329 329 329 329 328 328 328 327 327 326 324 323 321 312 304 305 306 306 306 305 303 303 303 303 303 303 303 303 303 303 303 304 304 304
312 312 313 313 314 315 317 319 321 323 324 325 326 327 327 327 327 327 327 328 329 328 329 329 329 329 329 331 331 331 330 330 329 328 328 328 328 328 329 330 330 329 329 329 329 329 329 328 329 329 329 329 329 328 329 328 328 328 327 327 326 324 324 323 315 304 304 306 306 306 305 303 303 303 303 303 303 303 303 303 304 304 304 304 305
312 312 312 312 312 313 314 316 318 320 322 323 325 326 326 327 327 327 328 328 328 328 329 329 329 329 329 330 330 330 330 330 329 329 328 329 329 329 328 329 330 330 329 329 329 329 329 328 328 329 329 329 329 328 328 328 328 328 328 327 325 324 323 321 314 306 304 306 306 306 306 304 303 303 303 303 303 303 303 303 304 304 305 305 306
312 312 312 312 312 312 313 313 315 317 319 320 322 323 324 325 326 327 328 328 328 328 329 329 329 328 328 329 329 330 330 330 329 329 328 328 328 328 328 328 329 330 330 329 329 329 329 329 328 328 328 328 329 329 328 328 328 328 327 326 325 324 321 317 313 307 304 306 306 306 305 304 303 303 303 303 303 303 303 303 304 304 305 306 308
311 311 311 311 311 312 312 312 313 315 316 317 319 321 322 323 325 326 327 328 327 328 329 329 329 329 329 328 329 329 330 330 330 329 329 328 327 328 328 328 328 329 329 329 329 330 330 330 328 327 328 329 328 328 328 328 328 328 327 326 325 325 322 317 313 308 305 306 307 306 305 304 303 302 303 303 303 303 303 303 303 304 305 307 308
309 310 310 310 310 311 311 312 312 313 314 315 316 318 319 321 323 324 326 327 327 328 328 328 328 328 329 328 329 329 329 330 330 329 329 328 328 328 328 328 328 328 329 329 330 330 330 330 329 327 328 328 328 328 328 328 329 328 327 326 326 325 323 319 314 311 308 307 307 307 306 304 303 302 303 303 303 303 303 303 303 304 305 306 308
307 308 309 309 309 309 310 311 311 312 312 313 314 315 316 318 320 322 324 325 326 327 328 328 328 328 328 328 329 330 330 330 329 329 329 329 328 328 328 328 328 328 328 329 330 330 329 329 329 328 327 328 327 327 327 328 328 327 327 326 325 324 322 319 315 315 314 311 308 307 306 305 303 302 302 303 303 303 303 303 303 303 304 306 307
305 306 306 307 307 308 309 309 310 311 311 311 311 312 313 315 316 318 321 322 325 326 327 328 328 327 327 328 329 329 329 330 329 329 328 328 328 328 328 328 329 329 328 329 329 329 329 328 328 328 327 328 328 327 327 327 326 325 326 326 324 323 322 318 316 317 316 311 307 307 307 305 303 302 302 302 303 303 303 302 303 303 304 305 306
304 304 304 305 306 306 307 308 308 309 310 310 310 310 311 312 314 315 317 320 322 323 325 327 328 328 328 327 328 328 329 329 329 329 328 328 328 328 329 329 329 329 328 328 329 329 328 328 327 327 327 327 327 327 327 327 326 325 326 325 324 323 321 318 318 318 313 309 308 309 309 306 304 302 302 302 302 303 303 303 303 303 303 304 305
302 303 302 302 303 304 305 306 307 307 308 308 309 310 310 311 312 314 315 317 319 321 322 324 326 328 328 328 328 328 328 329 329 329 328 328 328 328 328 329 329 329 329 329 329 329 328 327 326 327 328 327 327 327 326 327 326 326 326 325 323 322 320 318 319 318 312 309 311 313 313 311 308 305 303 302 302 302 303 303 304 304 303 303 304
301 301 301 301 302 302 303 304 305 305 306 307 308 309 310 311 312 313 314 315 318 319 321 322 325 326 327 328 328 328 328 328 328 328 328 328 328 327 327 328 328 329 329 329 329 329 328 327 327 328 328 328 328 327 326 326 326 326 326 325 324 321 318 318 319 318 314 311 312 313 314 314 312 309 307 304 303 302 303 304 304 304 304 303 303
300 300 300 300 301 301 302 302 303 303 304 305 307 308 309 310 311 312 313 314 316 318 320 322 324 325 326 327 327 328 328 327 326 327 327 328 328 326 324 325 327 328 329 329 329 329 328 328 328 328 327 327 328 327 326 326 327 327 326 325 324 320 317 317 318 318 315 313 312 312 313 313 312 311 309 307 305 303 303 304 304 303 303 303 303
300 300 300 300 300 301 301 301 301 302 303 304 305 306 307 309 310 311 313 314 314 316 319 321 322 324 324 326 327 327 328 327 326 325 325 327 328 326 324 325 327 328 328 328 329 329 328 327 328 327 326 327 328 327 326 326 326 327 326 325 324 320 316 316 317 317 316 314 313 312 312 312 312 311 310 309 307 305 305 304 303 302 302 302 302
299 300 300 300 300 300 300 300 301 301 301 302 303 304 306 307 309 310 312 313 314 315 317 319 321 322 323 324 325 326 327 327 326 325 325 326 327 327 327 327 327 327 328 329 329 329 328 328 328 327 327 327 327 326 326 326 326 327 326 325 324 321 318 316 316 317 317 315 315 314 313 313 313 312 310 309 308 308 308 307 305 303 302 301 301
299 299 300 300 300 300 300 300 301 301 301 301 302 303 304 305 306 308 310 312 313 314 315 317 319 321 322 323 324 325 326 326 326 326 326 326 326 327 328 328 327 326 328 329 329 328 328 328 328 327 327 327 326 326 326 326 326 326 326 325 324 323 320 318 317 317 317 316 316 315 314 313 314 313 311 310 310 311 310 309 308 306 304 302 301
298 299 299 300 300 300 300 300 300 300 300 300 301 301 302 303 304 306 307 309 311 313 314 315 317 319 321 323 324 324 325 326 326 326 326 326 325 327 328 327 326 327 328 329 328 327 327 327 328 327 327 326 326 326 326 326 326 325 324 324 323 322 321 319 317 316 316 316 316 315 315 314 314 314 314 313 313 312 311 311 310 309 307 305 304
298 298 299 299 299 299 299 299 298 298 299 299 299 300 301 301 302 303 305 306 308 310 311 312 314 316 319 321 323 324 325 325 325 326 326 326 325 327 328 327 326 326 328 328 328 327 326 326 327 327 326 325 325 325 325 325 325 324 323 323 323 322 320 318 317 316 315 316 316 315 315 314 314 315 315 314 313 312 312 311 311 310 310 310 310
297 297 298 298 298 298 297 297 297 297 297 298 298 298 299 300 301 302 303 304 305 307 309 310 311 313 315 318 320 322 324 324 325 326 326 326 326 327 328 328 327 327 328 328 328 327 327 326 326 326 325 325 325 326 325 325 325 324 323 323 322 322 320 318 317 317 316 316 316 315 315 315 314 315 314 313 312 312 312 312 312 313 313 313 312
297 297 297 297 297 297 297 297 297 297 297 297 297 297 298 299 300 301 301 302 303 304 306 308 309 310 313 315 317 320 322 324 325 325 326 326 326 326 327 327 327 327 328 327 327 327 327 327 326 326 326 326 326 326 325 325 325 324 324 322 322 321 320 320 319 319 318 317 316 316 315 315 315 316 315 314 313 312 312 313 314 313 312 311 310
Wind_Speed
6 7 6 7 7 7 8 8 7 8 12 14 14 14 14 13 14 15 13 10 8 7 5 7 9 10 9 7 7 8 11 11 14 14 13 11 8 6 8 9 8 7 8 9 9 8 7 7 6 5 3 1 1 2 4 5 6 7 8 9 9 9 9 8 8 8 8 8 8 8 8 8 9 9 9 10 10 11 14 14 15 15 15 14 13
7 8 8 8 8 7 8 10 9 7 10 12 13 14 13 11 13 15 15 13 10 8 8 11 13 13 12 10 10 10 11 11 13 14 13 12 10 10 10 10 8 7 8 8 8 8 6 6 5 3 2 2 2 3 4 6 7 8 9 9 9 9 8 7 7 7 7 7 7 7 6 7 9 9 9 10 10 11 14 15 15 15 15 15 14
9 9 9 9 8 9 10 11 10 8 8 12 13 13 12 11 13 14 15 15 13 11 11 13 14 15 14 13 12 13 13 12 12 13 13 12 12 12 10 8 7 7 7 7 8 7 6 4 3 2 2 2 3 4 5 7 9 9 10 9 8 8 7 7 6 6 6 6 6 6 6 7 8 9 9 9 10 11 13 14 15 15 15 16 16
10 9 9 9 9 10 12 12 11 10 10 11 14 15 14 14 14 15 16 17 15 14 15 16 15 14 13 14 14 15 16 15 13 12 13 13 14 13 10 8 6 6 7 7 7 7 6 3 3 3 3 4 4 5 7 9 10 10 10 8 7 7 7 6 6 7 7 7 7 6 6 7 8 9 9 10 11 11 12 13 14 14 15 16 17
10 10 10 10 10 11 13 14 13 13 13 13 15 17 18 17 16 17 18 19 17 17 18 18 18 15 14 16 16 15 15 17 15 12 14 16 15 14 11 8 6 5 5 6 6 6 5 3 3 4 4 5 6 7 8 10 10 10 9 8 7 7 8 8 8 8 8 8 7 7 7 7 8 9 10 10 11 12 12 12 13 14 15 16 16
8 10 12 11 12 13 15 15 15 15 15 16 18 18 20 20 19 18 20 20 20 20 19 19 20 18 17 19 19 15 13 17 17 15 16 17 16 15 11 8 6 6 5 4 5 5 4 4 4 5 5 6 8 9 9 10 10 9 8 7 8 8 9 9 9 9 9 8 8 7 7 7 7 9 10 11 11 12 12 12 12 13 13 14 15
9 11 12 12 12 14 16 16 15 16 16 17 19 20 20 21 21 21 22 22 22 22 21 20 21 21 19 19 19 17 14 16 19 18 19 19 18 16 11 7 6 6 6 4 4 4 4 4 5 6 7 8 9 10 10 10 9 8 8 8 8 9 9 9 10 10 9 8 8 7 7 6 7 9 10 11 12 12 12 11 12 12 12 12 13
11 11 12 12 13 14 15 17 17 17 17 17 19 20 21 22 23 23 23 22 22 23 23 22 24 24 21 18 17 17 16 19 21 20 20 19 18 16 11 8 7 7 6 4 3 3 3 4 5 7 8 10 10 10 10 10 9 9 8 8 8 8 9 9 9 9 8 8 8 7 6 6 7 9 10 11 11 11 11 11 11 11 12 13 13
11 11 11 12 13 14 15 18 19 20 20 19 20 21 21 22 23 24 24 23 23 24 25 24 25 25 24 22 19 17 17 21 23 21 20 19 18 15 12 10 8 8 8 5 3 3 3 4 5 8 9 10 11 10 10 10 9 9 8 8 7 8 8 8 7 7 7 8 7 7 6 6 7 9 10 11 11 10 10 10 11 12 13 13 13
10 11 11 12 14 15 15 17 20 22 23 22 22 22 22 23 23 25 26 25 24 25 26 25 26 26 26 25 23 21 19 20 23 23 21 18 17 15 12 11 10 10 10 7 5 4 3 5 6 8 10 10 10 10 10 10 9 9 8 7 6 6 7 6 5 5 6 6 6 6 5 5 7 9 10 11 11 10 10 10 11 13 14 13 13
10 11 12 14 15 15 15 17 19 22 24 25 24 23 23 23 24 25 26 26 26 26 27 26 26 25 25 24 23 25 24 20 20 22 20 18 17 16 13 11 11 12 11 10 7 5 5 5 7 8 10 10 10 9 9 9 9 8 7 6 6 6 7 7 5 4 4 5 6 6 5 5 6 10 11 11 11 10 10 11 12 13 13 13 14
10 11 12 14 15 16 16 17 20 22 24 25 26 25 24 24 25 25 25 27 27 27 27 26 26 25 25 24 24 26 26 21 19 20 19 19 18 16 15 14 14 14 13 11 9 7 7 7 8 9 9 10 10 10 9 9 8 7 7 7 7 7 7 7 6 4 4 6 6 6 5 4 6 10 11 11 10 10 10 11 12 13 13 13 13
11 12 13 14 15 16 17 19 20 22 24 24 25 26 25 25 26 26 26 27 28 28 27 26 25 25 26 26 26 26 26 23 22 21 20 20 19 18 17 16 15 15 14 13 11 10 10 9 9 10 10 10 10 11 10 9 8 8 8 8 8 8 8 8 7 6 6 7 7 7 6 5 6 10 12 11 11 11 11 12 12 12 13 12 11
12 13 14 15 16 17 18 20 20 21 23 24 25 26 27 27 28 28 27 26 27 28 28 27 27 26 25 25 25 26 27 26 24 23 21 21 20 20 19 17 16 16 16 15 13 12 13 12 11 11 11 11 11 10 10 9 9 9 9 9 9 9 9 9 8 8 8 9 8 7 8 6 6 9 11 10 11 11 12 12 12 12 12 11 10
12 13 15 17 18 19 20 21 21 21 22 23 24 26 28 29 30 30 28 26 27 29 30 29 29 27 24 23 24 25 26 27 25 24 23 22 22 22 21 19 17 17 17 16 15 14 14 13 13 13 12 11 11 10 10 9 9 9 10 10 10 10 11 10 8 10 10 10 10 9 9 8 7 8 10 11 11 11 12 12 12 12 11 10 9
11 13 14 16 18 20 21 20 20 20 20 22 24 25 26 28 31 31 29 28 28 29 31 31 30 28 24 22 22 21 21 24 25 24 23 23 23 23 22 20 19 19 19 18 16 15 14 14 14 13 12 12 12 11 11 10 11 11 11 12 12 12 13 11 10 11 11 11 11 10 10 9 8 8 10 11 11 10 11 12 12 12 11 10 9
12 13 13 14 16 19 20 19 20 20 21 22 23 23 25 26 29 30 30 30 30 30 31 31 30 28 27 23 19 18 20 20 20 22 24 24 24 23 22 21 20 20 20 18 16 15 15 15 15 14 13 12 12 12 11 11 12 12 12 13 13 13 14 12 12 12 11 12 12 11 11 11 9 9 11 12 11 11 11 12 13 13 12 11 9
11 13 13 14 16 18 20 20 21 22 23 24 23 23 24 25 26 28 29 31 31 31 32 31 29 27 28 28 24 21 21 18 16 19 22 24 25 23 23 23 21 21 21 20 18 17 16 16 16 15 14 13 13 12 12 12 13 13 13 13 14 15 15 14 14 13 11 12 13 13 13 12 11 11 12 12 11 11 11 12 13 13 12 11 9
12 14 14 15 17 18 20 21 22 22 23 24 25 24 25 25 26 28 30 31 30 32 32 29 28 26 27 31 30 25 20 17 17 17 17 21 25 24 24 24 24 23 22 21 20 19 18 18 17 16 15 15 14 14 13 13 13 13 13 14 14 16 17 16 14 13 12 13 14 13 13 12 12 12 12 11 11 11 11 11 12 12 11 10 9
14 15 16 17 18 18 19 21 21 22 23 25 26 25 25 25 26 28 31 31 30 31 31 29 28 27 26 30 32 28 23 17 16 18 17 18 22 24 25 25 24 24 23 22 21 21 21 20 18 18 17 16 15 15 14 14 14 14 14 15 16 17 18 16 14 14 12 12 15 14 13 13 13 13 11 11 10 10 10 10 10 10 9 9 8
13 15 16 18 21 21 21 21 21 22 23 24 25 24 24 24 25 26 28 30 30 30 30 29 29 27 26 29 30 29 28 22 18 20 20 19 19 22 24 25 25 25 23 22 22 23 23 20 20 19 18 17 15 16 16 15 15 15 15 16 17 17 18 16 14 14 13 12 14 16 15 14 14 13 11 11 11 10 10 10 10 9 9 9 9
11 13 15 18 21 23 22 20 20 21 21 21 22 23 23 23 24 24 27 30 30 29 29 29 30 28 26 28 29 30 31 29 24 22 20 20 20 18 20 23 25 25 24 23 24 25 23 21 21 21 20 18 16 16 17 17 16 15 16 17 17 18 19 16 14 15 14 13 14 17 18 16 13 13 12 12 11 11 10 10 10 10 10 10 10
12 13 14 16 18 20 21 20 20 20 19 19 20 22 23 22 22 24 25 26 27 27 28 29 30 29 27 28 29 29 31 31 29 27 23 22 21 19 17 19 22 24 23 23 24 25 24 23 23 23 22 20 18 17 18 18 17 16 16 18 18 19 19 17 15 16 15 14 14 16 19 17 14 14 13 13 12 12 11 11 11 11 11 11 11
12 13 13 14 15 17 18 19 19 19 19 19 20 21 23 22 22 22 23 23 25 26 26 26 29 29 27 27 28 28 29 28 28 28 26 25 24 22 20 18 19 21 21 21 24 26 25 25 25 24 23 21 19 19 19 18 18 17 17 19 19 20 19 17 16 17 16 15 15 16 19 17 15 14 14 14 13 13 12 12 12 12 12 12 12
11 12 13 13 14 15 16 17 18 18 19 20 20 21 23 23 22 22 22 21 22 24 24 24 27 28 26 25 26 27 27 25 23 24 26 27 25 23 22 20 19 19 20 22 24 25 26 26 26 25 23 22 21 20 20 19 18 18 19 20 21 19 18 17 17 18 17 15 15 16 18 17 16 15 15 14 14 14 14 14 14 13 14 14 13
12 12 12 13 14 14 15 16 16 17 18 19 20 21 22 24 24 23 22 21 19 21 22 22 24 27 26 24 26 27 26 25 24 24 26 28 27 25 24 22 21 20 21 23 24 25 27 27 27 26 25 25 23 22 21 20 18 19 20 21 21 19 18 17 18 18 18 16 15 16 17 16 15 15 15 15 15 14 14 15 15 15 15 14 13
12 13 12 13 14 14 14 15 15 16 17 18 19 20 20 22 23 24 23 20 19 21 22 21 22 27 28 27 28 29 28 27 27 27 27 27 27 27 25 24 23 21 22 24 24 26 27 27 27 27 26 26 25 23 22 20 19 20 21 21 21 19 18 18 18 19 19 17 16 17 17 15 15 16 16 15 15 15 15 15 15 16 15 14 13
13 14 13 12 13 15 15 15 15 16 17 17 18 19 19 20 21 22 22 20 20 21 22 23 24 25 28 30 31 31 30 30 30 29 28 27 27 28 27 27 26 24 23 24 25 25 25 25 28 28 28 27 26 24 22 20 20 21 22 22 21 19 18 18 18 19 20 18 17 18 18 16 16 16 16 15 15 15 16 16 16 16 15 14 13
13 14 13 13 13 14 15 16 16 16 17 18 18 19 20 20 20 20 20 21 22 21 22 24 25 25 27 29 31 31 31 31 31 30 28 28 28 28 27 28 29 26 24 25 27 25 23 26 29 29 29 28 26 25 23 21 21 22 23 23 21 19 18 17 18 20 20 19 18 19 19 18 17 16 16 16 16 16 17 17 16 16 15 14 13
13 13 13 13 14 14 15 16 16 16 17 18 18 19 20 21 21 21 21 21 22 22 23 25 26 26 27 28 29 30 31 31 31 30 29 29 29 30 29 29 30 27 25 26 27 25 23 26 30 30 29 29 28 26 25 22 21 22 23 23 22 20 18 18 18 20 21 20 20 20 20 19 18 17 17 17 17 17 17 17 17 16 15 14 14
14 14 13 12 12 14 16 16 17 18 17 17 17 18 19 20 21 22 21 21 21 21 21 24 26 28 29 29 29 30 31 32 31 30 30 29 30 31 30 29 29 28 25 25 25 24 23 26 30 30 30 30 29 28 27 24 23 23 23 23 22 20 20 19 19 21 22 21 21 21 21 20 19 18 18 18 18 18 18 18 18 17 16 15 14
17 16 15 14 13 13 14 15 16 17 18 18 18 18 19 20 21 21 21 21 22 21 19 21 24 27 28 28 28 29 31 31 32 31 30 29 29 30 30 30 30 29 27 27 27 26 24 25 30 31 29 29 30 29 28 26 25 25 24 23 21 20 21 21 20 21 23 22 21 21 22 22 21 20 20 19 19 19 19 19 18 18 17 16 15
20 19 18 17 16 15 14 13 14 15 16 16 16 17 18 19 20 20 20 21 22 22 21 22 23 25 27 28 28 29 29 30 31 31 29 29 29 30 30 30 31 31 30 30 30 29 25 25 28 29 29 29 30 30 30 28 28 27 25 24 22 22 22 22 22 23 24 23 22 22 23 23 22 21 21 20 20 20 20 20 19 18 18 17 16
22 21 20 20 18 17 15 14 14 13 14 15 15 16 17 17 18 18 20 21 21 21 22 25 26 25 26 28 27 27 28 30 30 30 29 29 30 30 30 30 30 31 32 31 30 29 27 25 26 30 31 31 31 32 32 30 29 29 27 25 24 24 23 23 24 24 25 24 23 22 23 24 23 22 22 21 21 21 21 21 20 19 18 18 17
23 23 22 22 20 18 16 15 13 13 14 15 15 16 17 18 20 20 20 20 20 19 20 24 27 26 25 27 28 26 28 30 30 29 29 29 31 31 30 30 30 32 33 31 29 29 27 25 27 32 34 33 32 33 33 32 31 30 28 27 25 24 24 24 25 25 25 25 24 23 24 24 24 23 22 22 22 22 22 21 21 20 19 18 18
24 24 24 23 22 21 18 16 15 13 13 16 16 16 17 19 21 21 21 21 20 19 20 21 24 24 22 24 27 27 28 30 30 29 29 29 30 31 31 31 31 33 33 31 30 29 27 26 27 32 35 35 35 35 34 33 32 30 29 27 25 24 24 24 25 25 26 25 24 23 24 25 25 24 23 23 23 23 22 22 21 20 19 19 18
24 24 25 25 24 24 22 20 17 13 13 17 18 18 19 20 21 22 21 21 20 19 19 20 21 22 22 23 25 28 30 30 30 29 29 29 30 32 33 32 31 34 33 31 31 31 29 27 26 29 33 34 35 35 33 32 31 31 30 28 26 25 24 24 24 25 25 25 24 23 23 24 25 24 24 23 23 23 22 22 22 20 19 19 19
25 25 25 26 26 26 24 22 19 15 14 17 19 20 22 23 23 22 21 20 19 19 20 21 21 21 22 24 25 27 29 30 30 29 28 28 30 32 33 32 33 34 33 33 33 33 31 27 25 28 32 33 32 32 32 33 34 34 33 31 28 27 25 25 24 25 24 25 25 24 23 25 26 25 24 24 23 23 23 22 22 20 20 19 19
27 26 26 27 28 28 26 25 22 19 17 19 21 22 24 25 25 25 24 22 21 20 20 21 22 21 21 23 25 26 28 30 30 29 28 28 29 31 32 32 33 35 34 35 35 34 32 29 28 29 29 29 29 30 33 35 36 35 35 33 31 29 27 26 26 25 24 24 26 25 23 23 25 25 24 24 23 23 23 22 22 21 20 20 20
28 28 28 28 29 29 28 27 26 24 23 23 24 25 26 26 26 27 26 25 24 22 20 20 21 22 21 22 24 25 27 28 29 29 28 28 29 31 32 33 34 35 36 36 36 35 34 34 33 30 27 27 28 30 34 36 35 35 35 34 34 32 30 28 26 24 24 26 27 26 25 24 25 26 25 25 25 25 24 23 22 22 21 21 21
29 28 28 29 29 30 30 30 29 28 29 30 30 29 28 28 29 28 28 27 28 27 25 22 22 23 22 22 23 24 24 25 26 27 29 29 30 31 32 33 34 35 36 38 38 37 36 36 35 31 29 31 30 30 35 38 37 35 35 35 34 32 30 28 25 22 23 26 26 26 25 25 26 27 27 27 27 26 25 24 23 22 22 22 21
31 29 29 30 31 32 32 32 32 31 32 33 33 32 30 28 28 29 28 28 28 29 28 26 24 24 24 24 23 23 24 24 26 27 29 31 31 31 31 33 34 35 37 38 38 36 36 36 35 33 33 33 32 31 35 38 38 35 36 37 35 32 30 29 26 22 22 24 25 24 24 24 23 25 27 28 27 26 25 24 22 21 21 21 21
34 31 31 31 32 34 34 34 34 33 34 34 34 34 34 32 29 27 27 26 25 26 27 26 26 26 27 26 24 23 24 24 25 26 29 31 32 31 31 33 34 35 37 38 37 36 36 35 34 35 36 36 34 33 33 36 38 37 37 38 35 33 34 33 30 28 25 25 25 24 24 24 22 23 25 26 26 26 25 23 21 21 21 20 20
35 33 32 32 33 35 35 36 35 35 35 36 35 35 36 36 34 29 26 23 22 22 23 24 25 26 26 25 24 23 22 23 24 24 26 30 31 30 31 33 34 34 35 37 37 38 38 37 36 37 39 37 36 35 34 35 37 38 38 38 36 35 38 37 34 32 28 26 27 26 25 24 23 23 24 24 24 24 23 22 21 22 21 21 21
35 34 33 33 34 35 36 37 38 38 38 38 37 36 36 37 38 33 26 21 19 18 19 21 23 24 24 23 25 24 22 22 24 24 26 29 30 31 32 33 32 32 33 36 37 37 37 38 37 38 39 37 36 36 36 36 36 37 40 41 38 36 39 40 36 31 28 27 28 29 27 24 22 22 24 24 23 22 21 22 22 23 22 23 22
35 34 34 34 34 35 36 37 39 40 41 41 41 40 38 37 39 37 28 21 17 15 16 17 19 21 22 21 23 24 23 24 25 25 25 27 29 31 32 32 30 31 34 36 34 34 35 35 34 35 36 35 34 35 36 35 35 36 38 41 41 39 39 39 35 30 28 27 27 28 27 24 22 22 24 24 22 22 21 22 23 24 24 24 24
35 34 34 34 34 35 36 36 38 39 40 42 42 43 42 39 39 39 34 26 20 16 15 14 15 18 20 20 20 20 22 25 26 26 26 26 27 29 30 30 29 31 35 36 32 30 32 32 32 33 31 29 30 33 34 34 34 34 33 35 39 40 38 38 37 33 31 29 27 27 27 26 24 23 23 22 22 22 22 22 22 23 25 25 24
35 35 34 34 34 36 37 38 40 41 41 42 43 44 44 43 40 39 39 35 27 21 18 16 14 15 17 20 20 20 21 23 25 26 27 27 27 28 28 28 29 30 33 34 31 28 29 30 30 29 26 24 26 30 30 31 33 33 29 31 37 40 39 40 41 39 35 33 31 31 29 28 27 26 24 24 24 23 23 22 20 19 21 23 23
35 35 34 34 35 37 39 40 42 43 43 44 45 45 44 44 42 40 40 40 36 29 24 20 18 16 15 16 20 22 23 23 24 26 28 29 28 28 28 28 29 29 30 31 31 30 30 30 28 27 25 23 24 27 29 30 31 32 30 31 36 38 39 42 43 40 39 37 35 34 32 30 30 29 27 26 24 22 21 19 18 18 18 19 19
34 34 33 34 35 36 38 39 40 41 43 43 44 45 45 44 43 41 40 40 39 37 32 27 22 20 18 16 17 21 25 25 26 28 30 31 31 31 30 30 30 29 30 31 32 32 32 31 29 26 25 25 25 28 30 31 32 34 33 33 33 35 40 44 43 40 38 37 37 37 35 32 31 30 30 26 21 19 20 21 21 20 19 17 16
33 33 33 34 35 35 36 38 39 40 42 42 43 44 45 44 44 43 41 40 40 40 38 33 28 23 20 19 18 20 24 26 27 28 30 32 33 32 31 32 31 30 31 30 31 33 32 31 30 29 28 27 27 29 31 32 32 33 34 34 32 34 39 41 40 39 36 34 37 38 37 35 33 31 31 30 27 24 23 22 21 19 17 15 13
Wind_Direction
248 244 249 248 242 250 259 245 219 213 218 220 216 214 211 203 205 205 201 205 196 167 186 237 234 225 234 222 207 237 252 258 265 269 281 296 299 295 302 298 287 292 295 296 296 295 294 287 277 264 248 233 177 129 123 124 124 124 122 120 115 111 108 104 102 101 102 102 101 100 100 97 93 92 98 100 95 93 93 91 92 93 93 95 103
257 248 249 245 240 244 255 254 242 218 202 209 215 217 214 211 217 213 208 207 198 184 202 231 237 231 231 227 216 230 248 253 256 263 276 284 286 292 304 300 281 284 293 291 294 295 293 287 277 253 212 174 158 146 136 132 131 128 124 121 117 113 111 107 106 107 108 108 106 104 103 101 99 98 102 104 101 100 99 94 92 92 94 95 96
251 243 245 247 245 241 246 254 255 243 214 201 206 216 217 223 237 228 216 210 198 196 214 227 235 240 240 233 219 222 239 251 255 262 271 276 281 287 300 303 277 274 285 287 292 295 293 283 255 219 200 186 165 151 142 135 133 130 126 122 118 116 112 109 111 111 112 113 113 112 111 108 107 107 107 109 109 109 107 101 96 94 94 94 93
250 246 248 251 252 246 242 246 250 249 243 221 211 218 221 224 238 240 229 219 207 206 217 224 229 235 238 236 228 229 235 241 249 256 260 265 272 278 292 299 281 274 282 285 287 286 287 270 220 213 204 185 163 152 144 137 134 131 127 123 120 118 113 113 114 112 112 113 116 119 118 115 114 113 113 114 115 115 111 106 101 98 97 95 92
260 257 258 259 258 253 243 240 243 242 244 240 227 224 228 227 229 239 237 228 222 217 215 223 229 222 224 232 234 237 234 234 243 249 250 256 263 270 282 288 277 274 284 287 281 277 277 255 220 219 203 185 163 153 148 140 137 133 130 128 126 122 115 112 109 108 109 109 114 121 122 123 122 120 119 119 120 118 113 110 105 101 100 98 96
269 264 263 261 257 256 248 240 240 237 238 242 236 230 233 232 228 236 242 236 229 225 220 225 228 219 220 228 231 234 227 229 241 246 246 251 258 265 274 277 267 270 285 290 280 273 268 246 227 220 197 180 164 155 151 144 142 139 136 136 131 125 117 111 106 104 106 108 112 116 121 128 130 128 125 125 125 123 120 115 110 104 101 101 101
259 254 257 256 254 256 252 244 241 239 238 240 238 235 236 236 232 233 240 240 233 229 227 226 225 222 226 232 236 237 225 226 238 243 247 251 255 261 265 262 259 269 278 279 276 281 273 249 228 211 188 175 165 157 154 151 150 146 143 141 134 126 119 112 107 105 107 111 111 110 115 127 135 134 131 131 129 127 124 119 114 108 104 104 104
238 239 248 250 254 255 250 246 244 244 244 240 239 239 240 240 239 237 240 241 236 232 230 227 223 220 224 232 237 236 227 228 234 237 245 250 253 258 260 254 255 262 265 261 266 291 285 252 219 196 182 172 166 162 160 159 157 153 149 144 136 129 122 116 112 111 114 116 113 107 106 122 136 137 136 136 131 127 124 120 119 113 106 104 103
231 236 247 253 261 261 254 248 246 247 247 243 241 243 244 244 243 241 241 241 237 234 232 231 228 225 227 233 232 227 227 231 234 237 243 246 248 252 256 255 255 255 253 250 257 290 287 246 206 184 179 173 170 169 167 168 165 159 156 149 143 137 129 124 117 113 116 119 120 114 104 113 130 137 138 135 128 123 121 119 117 113 109 107 106
240 244 247 256 265 263 258 254 249 247 248 247 245 244 245 247 246 243 242 241 237 235 235 234 236 234 234 236 231 229 232 232 235 242 243 240 240 245 251 254 257 258 255 252 255 267 258 228 199 181 180 178 177 177 176 174 171 165 162 156 154 152 148 147 135 122 122 126 135 130 110 107 124 138 138 131 125 122 122 122 120 118 114 113 113
258 259 255 263 267 265 264 262 257 252 251 251 249 248 248 249 249 245 244 244 242 238 236 236 240 240 237 236 231 232 238 234 235 243 241 235 235 239 244 245 251 259 259 258 255 248 237 223 205 190 187 187 185 185 181 178 176 173 174 171 168 165 163 165 161 151 147 149 153 146 125 109 127 141 139 133 129 126 126 125 126 125 122 121 119
265 263 260 265 267 268 267 264 264 260 257 254 253 252 252 253 252 248 245 245 246 242 237 236 240 240 237 237 233 231 236 236 238 240 234 232 235 236 238 236 240 247 250 257 257 241 233 226 214 202 198 195 189 187 185 186 190 190 187 187 188 181 172 172 174 175 172 169 167 160 146 121 129 143 143 140 138 135 134 131 131 132 131 131 130
272 266 261 261 264 267 264 261 262 262 261 260 257 255 254 254 252 250 248 246 247 246 241 238 240 240 238 238 236 232 233 236 240 239 230 229 233 233 235 234 235 238 240 250 252 238 233 230 220 212 206 203 198 196 199 201 206 205 198 197 200 195 185 181 184 189 186 179 176 172 162 140 135 146 146 146 147 145 143 138 137 138 139 141 142
279 276 272 270 268 267 266 267 265 263 264 264 261 257 253 251 251 251 250 247 247 247 244 241 241 243 241 239 236 232 232 235 239 240 232 228 232 233 235 233 232 235 239 245 244 234 233 232 224 219 214 212 211 212 215 214 213 212 204 200 200 197 190 186 188 194 192 184 182 180 171 158 150 151 148 152 158 157 153 148 146 145 146 149 151
279 277 275 275 274 272 272 272 270 268 267 265 264 259 254 251 250 250 248 247 246 246 246 244 245 245 241 238 235 230 230 232 233 235 232 229 231 233 234 231 230 232 236 239 238 233 232 229 224 222 219 218 221 223 222 218 216 215 210 204 199 195 191 188 194 197 190 183 185 188 181 171 166 162 157 160 165 165 163 161 159 158 156 156 157
281 276 273 274 278 280 280 279 279 277 275 272 269 265 260 255 251 250 248 248 247 246 247 246 245 241 234 232 231 228 227 230 232 232 232 230 229 231 233 231 229 231 232 233 234 233 232 231 226 222 219 219 222 225 223 217 214 213 212 208 201 195 191 191 199 199 190 181 184 193 192 182 177 172 165 161 161 161 164 168 172 173 172 171 167
287 284 283 283 283 284 284 284 285 283 279 276 273 270 266 261 258 256 253 251 250 247 245 243 241 237 234 230 226 225 225 228 235 235 233 231 230 230 231 231 229 229 230 230 231 232 233 236 232 224 221 220 220 222 220 217 217 212 210 208 201 197 193 192 201 203 193 182 184 194 198 192 183 173 164 157 154 154 158 165 173 178 180 179 172
288 287 287 287 287 286 284 282 281 280 278 276 274 271 269 267 265 262 256 252 249 247 245 243 240 236 237 236 232 233 230 224 230 235 232 230 231 232 231 231 229 228 229 227 228 231 232 235 234 227 226 226 225 225 220 219 221 215 212 208 202 200 196 194 201 205 196 184 186 194 198 196 185 171 164 159 157 157 158 161 167 172 174 171 165
291 291 289 289 288 289 288 285 282 280 280 279 277 275 275 274 271 267 262 254 247 245 246 246 242 237 240 239 234 234 233 226 223 227 229 226 227 230 230 229 227 227 229 228 227 230 231 232 232 230 228 228 229 229 223 220 219 216 214 211 205 204 200 199 201 203 198 187 186 192 196 195 183 170 166 163 162 162 161 162 163 164 164 162 159
299 299 297 296 292 289 290 288 288 288 287 284 282 282 281 281 279 274 269 262 251 245 243 244 244 242 244 244 237 230 228 228 223 224 232 232 226 225 227 228 227 227 229 228 226 230 232 230 231 230 228 228 230 231 228 223 219 217 216 211 208 206 202 203 200 200 203 193 185 186 190 193 184 173 170 167 166 166 165 164 162 161 161 161 160
303 304 301 300 297 295 296 297 300 300 297 292 288 286 286 287 287 283 280 273 260 249 243 241 242 244 245 246 242 233 228 228 226 225 233 240 234 227 225 225 225 226 227 225 224 229 231 229 231 232 230 230 229 231 233 228 222 220 216 211 209 206 202 204 202 199 203 198 188 182 187 197 188 175 173 172 172 173 171 168 165 165 164 163 161
306 305 302 300 299 302 305 309 312 310 305 302 297 295 294 294 292 290 290 279 263 254 248 240 237 240 243 245 243 236 230 227 225 225 227 235 239 234 229 227 227 225 223 222 221 225 228 225 228 231 231 231 229 229 231 229 224 221 216 211 208 204 201 205 205 201 202 202 193 182 188 201 192 178 179 178 177 178 176 173 170 169 168 166 165
308 309 307 303 300 304 308 311 315 314 311 309 305 303 301 300 297 291 288 279 268 264 258 243 234 237 240 241 242 239 235 231 228 228 227 230 235 237 235 233 233 231 227 223 221 222 223 222 224 229 231 232 231 226 225 226 223 219 214 210 205 201 202 207 208 204 203 203 198 188 190 198 193 183 184 182 181 181 179 176 173 173 172 170 167
311 315 317 313 305 304 307 309 313 314 314 315 312 307 304 303 302 296 291 283 276 274 265 245 233 235 237 236 238 238 238 237 234 233 232 234 238 239 238 236 235 233 230 228 224 220 220 222 224 227 230 232 231 224 221 222 220 216 211 207 204 201 203 209 209 205 204 203 202 197 192 193 194 189 186 185 184 181 180 178 176 175 174 172 167
325 325 328 327 316 308 308 310 312 312 315 316 314 310 307 305 303 301 298 289 277 272 269 253 237 235 238 237 237 236 236 237 236 235 235 236 238 238 238 240 239 235 229 226 225 222 220 223 225 225 227 230 229 224 221 219 218 215 209 205 204 204 205 210 209 205 204 203 203 201 194 194 196 191 188 188 186 182 181 180 178 177 175 172 169
329 328 328 329 322 316 313 312 311 309 312 314 313 312 310 308 306 303 300 293 278 269 269 263 247 241 242 241 239 236 237 241 239 238 238 237 235 234 234 237 239 238 233 227 223 223 221 222 224 224 224 226 227 225 222 219 218 214 208 203 204 207 209 211 209 205 204 205 204 202 199 199 196 191 191 191 188 185 183 181 180 178 176 174 173
318 318 320 324 322 319 316 314 311 308 310 311 311 312 311 309 307 304 301 294 279 267 264 264 256 248 245 244 242 240 241 245 244 241 242 240 238 236 236 235 232 230 230 228 224 224 223 222 223 222 222 224 225 227 224 219 217 213 207 205 207 210 212 211 208 205 205 206 206 204 202 201 196 193 194 193 190 188 185 183 182 179 178 179 179
312 308 309 316 318 318 316 314 313 313 313 313 311 311 310 309 306 306 304 293 278 267 263 264 262 255 251 250 250 248 245 246 245 241 240 241 241 239 238 238 235 227 223 224 223 224 222 220 221 220 221 223 224 226 226 220 217 215 210 208 208 211 212 211 208 206 206 207 207 206 205 201 198 196 196 194 192 190 187 187 186 183 182 183 183
322 314 309 305 306 312 316 313 311 315 316 316 315 312 309 308 307 307 306 296 284 275 267 265 262 257 254 254 255 254 250 246 243 239 238 241 243 241 239 240 239 232 226 222 221 223 220 218 220 219 219 221 222 223 225 220 216 215 212 209 210 213 214 213 210 207 207 208 208 207 206 202 200 198 198 197 195 192 192 191 190 188 187 187 186
335 328 320 307 298 300 307 309 311 317 319 317 318 316 313 310 306 306 306 301 293 283 273 267 262 257 255 256 256 255 252 248 242 239 240 241 242 241 238 236 237 234 231 229 227 225 221 219 219 218 216 218 218 221 223 219 214 214 213 211 213 218 218 215 213 210 208 209 209 209 207 204 201 200 200 200 198 196 195 194 193 193 192 191 189
345 340 337 326 307 296 295 299 307 314 316 316 316 317 316 313 309 305 304 303 298 288 276 268 264 262 260 259 257 255 252 247 241 239 241 242 241 241 239 237 237 235 232 231 228 224 221 221 219 216 217 218 217 220 222 219 216 216 215 215 216 218 218 217 215 213 211 210 210 210 209 207 204 202 202 203 201 199 197 196 196 196 195 194 192
357 350 346 341 330 314 299 296 301 307 310 314 318 319 317 316 313 308 305 304 300 294 283 272 267 265 264 261 258 255 251 246 242 240 241 243 242 242 241 239 237 235 228 225 227 224 220 222 219 214 217 220 218 219 222 220 218 219 218 218 217 217 218 218 215 214 213 213 212 212 211 209 206 205 204 205 204 201 200 199 198 198 197 196 194
5 359 353 348 346 339 321 305 300 304 311 317 322 323 320 317 315 311 307 304 300 295 287 279 273 267 264 262 258 256 251 246 245 242 241 243 243 242 242 237 232 232 228 224 226 225 222 223 221 214 214 219 219 219 221 220 217 217 218 220 220 221 223 221 216 213 213 213 214 213 212 210 208 207 207 207 206 204 203 201 199 199 198 197 196
9 6 2 358 356 351 341 322 303 301 313 316 314 314 311 307 306 304 301 301 300 297 288 282 279 273 267 263 259 254 249 244 244 243 241 242 242 242 243 238 232 230 227 225 227 228 226 224 222 216 213 217 220 220 221 221 219 216 217 221 221 221 225 222 217 214 212 212 214 214 214 212 210 209 209 209 208 206 205 203 201 200 199 198 198
13 11 8 5 3 358 353 342 324 314 311 304 302 306 303 298 296 296 297 298 299 297 291 284 280 276 271 266 260 253 247 243 243 243 243 241 241 242 243 241 238 233 228 225 227 231 227 219 217 214 211 213 220 223 222 222 222 219 219 221 217 216 220 219 217 216 213 211 213 215 215 213 212 211 211 211 210 209 207 205 204 203 201 200 200
17 16 13 11 8 2 358 353 346 338 319 300 294 297 298 295 294 294 295 297 295 295 295 290 284 279 272 266 261 253 246 243 243 243 241 239 240 240 240 239 239 238 233 226 226 231 229 221 216 212 212 213 216 219 222 220 219 220 220 218 214 214 218 218 216 216 214 212 214 216 216 214 213 212 212 213 212 211 210 208 206 205 203 202 203
23 22 19 16 13 8 3 358 353 351 330 306 294 290 291 291 292 292 293 294 294 292 292 293 291 286 276 267 263 256 248 243 242 241 238 237 237 238 240 240 238 239 238 231 227 228 226 225 223 216 214 214 210 213 220 221 218 218 218 218 218 220 221 220 217 215 214 213 214 216 217 216 215 215 214 215 215 213 213 211 209 207 205 204 206
24 25 25 23 20 16 11 4 357 351 332 314 306 299 292 288 288 290 289 289 289 288 286 286 287 285 277 270 266 259 251 245 241 239 239 238 238 239 241 241 239 238 238 235 231 228 223 223 226 220 214 216 216 216 220 221 219 216 214 215 219 223 225 222 218 215 214 214 214 214 216 215 214 215 215 216 216 216 216 214 211 209 207 207 209
20 22 23 23 22 21 18 14 7 359 344 329 321 313 303 294 289 288 288 287 285 284 283 282 283 283 278 271 266 262 255 248 243 241 241 240 240 240 240 241 240 238 236 234 233 232 229 226 226 222 216 218 220 219 219 219 217 213 211 211 213 218 224 224 221 219 217 216 215 213 214 215 216 216 216 217 218 218 217 216 213 211 210 210 212
16 17 19 18 18 19 19 19 16 11 3 353 342 331 321 310 299 292 289 287 285 283 282 280 280 282 280 272 266 263 258 251 245 242 241 242 241 241 240 240 240 239 236 234 232 234 235 232 228 227 223 219 217 216 217 217 213 210 212 214 214 214 219 222 222 222 220 215 212 211 211 211 213 215 215 216 217 217 217 216 215 214 213 214 215
14 15 16 15 13 14 15 16 16 15 12 7 1 352 339 324 313 304 296 289 286 285 284 282 278 277 277 274 268 264 259 252 247 242 239 239 240 240 241 239 239 240 237 234 232 233 233 230 228 227 224 220 219 217 216 216 217 216 214 215 216 216 219 220 219 219 217 211 207 207 208 209 210 213 215 216 216 216 216 216 215 215 216 217 218
17 17 18 14 11 11 12 12 12 13 13 10 5 1 353 339 323 312 304 296 290 287 285 285 284 280 277 275 270 265 260 254 251 245 240 238 237 237 240 241 242 243 239 236 233 230 228 226 224 223 221 219 221 221 219 219 220 219 214 212 214 216 217 217 217 215 213 208 206 207 209 211 212 214 216 218 218 218 218 217 217 218 218 220 221
19 21 21 16 11 10 11 11 11 11 12 9 6 3 1 353 340 325 314 304 297 293 290 287 286 284 280 274 270 266 262 257 252 247 242 240 236 235 237 241 245 246 244 241 235 229 227 226 222 221 222 222 223 223 223 221 218 217 217 213 211 212 213 213 213 214 211 207 209 214 215 215 218 220 221 222 220 220 220 219 219 220 221 222 222
20 23 23 18 13 12 12 12 11 11 10 9 7 5 3 0 353 341 327 316 305 299 295 290 286 287 283 276 270 265 261 257 254 249 244 239 235 233 235 239 244 247 246 244 238 231 229 228 224 224 225 226 224 222 221 220 217 217 217 213 207 206 210 213 214 215 213 209 211 218 219 219 223 227 226 224 223 222 221 221 221 221 221 221 222
21 25 24 20 17 15 14 13 12 11 10 8 6 5 4 5 2 352 339 329 319 304 296 291 288 289 287 278 270 264 257 255 253 249 243 238 233 232 235 239 243 245 246 246 241 234 232 229 225 225 226 225 224 224 224 223 219 216 214 213 209 205 207 213 217 218 215 211 212 217 219 219 223 226 224 222 220 219 218 218 220 221 221 222 223
23 27 24 21 18 16 14 13 11 10 8 6 5 4 4 6 7 3 353 343 333 320 306 294 287 287 287 281 274 267 260 256 254 248 243 238 234 232 234 237 242 245 247 245 237 232 234 233 228 228 229 226 224 225 225 222 220 217 215 214 213 208 206 212 218 218 216 215 218 220 218 216 217 218 218 216 213 213 215 217 219 220 220 222 223
27 29 26 23 21 18 16 14 12 10 7 4 3 2 3 4 6 8 5 357 348 338 327 310 290 281 280 280 278 272 264 259 256 248 242 240 239 236 234 235 240 243 243 240 233 228 233 235 231 230 230 226 224 224 223 220 218 217 217 216 214 210 210 215 218 216 215 217 221 220 214 211 210 210 211 209 208 209 213 216 218 219 220 220 222
31 33 30 27 26 24 21 20 18 15 12 8 5 2 2 1 3 6 8 5 360 353 343 331 314 290 277 274 274 270 264 261 257 250 243 241 241 239 235 235 240 241 238 237 235 233 235 237 236 233 229 225 225 226 226 224 220 217 215 212 211 212 214 214 213 212 211 212 217 218 213 208 206 207 209 210 212 213 215 215 213 211 212 211 210
31 33 31 30 29 27 25 22 20 18 15 13 9 6 4 3 2 4 6 6 6 4 357 347 335 318 297 278 269 264 260 256 251 246 244 242 239 236 234 235 238 239 237 235 233 231 234 237 236 232 227 224 222 223 225 225 223 220 215 209 211 215 213 207 204 206 207 208 211 213 212 208 205 206 209 210 213 215 210 200 189 183 186 191 194
29 29 30 29 28 27 26 23 21 18 16 13 11 9 8 6 4 3 3 4 6 6 3 357 348 335 321 300 278 265 258 251 242 237 239 242 239 235 232 232 233 234 234 231 225 222 223 224 222 222 224 223 218 217 220 220 217 216 213 209 209 210 208 205 202 201 202 205 208 208 208 208 205 203 202 196 189 189 187 177 170 173 177 182 186
27 27 28 28 27 26 26 24 22 19 17 15 12 10 9 8 6 4 2 2 5 6 4 0 357 349 335 320 300 277 262 254 244 236 236 241 241 238 234 231 230 230 230 228 223 218 214 210 210 214 216 216 214 214 217 220 218 215 211 210 209 204 203 203 201 197 194 195 201 203 203 202 201 199 198 188 169 162 168 172 172 175 178 181 179